Location: Brede
(50.9167°N, 0.6000°E)
Time: 01:17:31
(UTC+00:00)

SAR-Lupe-4 - Pass Details

Date: 08 August 2020
Orbit: 481 x 485 km, 98.2° (Epoch: 16 September)

Event Time Altitude Azimuth Distance (km) Brightness Sun altitude
Rises 03:48:43 0° 154° (SSE) 2,534 7.1 -7.0°
Reaches altitude 10° 03:50:47 10° 150° (SSE) 1,659 6.2 -6.7°
Maximum altitude 03:54:16 57° 71° (ENE) 578 4.4 -6.3°
Drops below altitude 10° 03:57:48 10° 353° (N) 1,674 6.7 -5.8°
Sets 03:59:53 0° 349° (N) 2,559 7.6 -5.5°
